GFSGBSN_500_rhum_060.txt.gz
RH
97 96 93 88 88 88 83 85 81 75 76 75 78 65 50 54 63 57 54 54 54 55 59 67 63 64 69 65 53 57 63 65 62 79 78 68 56 29 16 10 87 61 59 40 82 87 58
96 96 97 97 96 97 93 92 88 87 86 81 77 73 72 64 50 48 62 58 54 50 51 58 55 58 62 62 66 70 74 64 68 87 80 70 59 26 12 10 10 27 22 33 87 66 39
97 96 96 96 97 96 96 96 96 95 93 89 92 76 70 71 73 64 64 64 57 54 52 54 45 40 41 73 68 81 84 68 64 81 82 72 64 29 15 11 12 13 22 64 85 86 40
96 97 97 96 96 96 96 95 95 97 95 94 94 86 71 72 69 65 61 66 62 65 60 57 52 42 38 55 58 81 76 65 60 64 92 77 70 31 14 12 10 30 51 89 87 80 64
94 95 96 96 96 98 98 99 98 96 96 96 93 91 83 72 69 72 67 67 62 69 68 63 60 47 45 47 50 72 76 70 61 76 96 87 74 36 18 11 25 81 74 100 81 78 90
80 85 92 91 92 94 93 93 92 98 99 96 97 95 86 81 67 62 58 64 68 67 66 64 60 54 45 52 53 66 69 70 75 71 80 95 76 43 18 13 31 99 100 93 98 86 65
52 37 36 43 38 42 52 65 84 76 89 95 93 93 92 62 54 53 51 52 68 60 60 71 58 63 43 51 52 52 57 61 65 77 90 94 81 43 19 14 94 60 30 84 72 96 78
4 6 7 9 11 11 14 17 17 18 27 38 28 58 27 67 59 46 42 45 48 50 45 62 63 55 58 53 56 51 49 56 65 82 82 90 85 40 19 14 24 34 20 40 98 76 54
3 3 3 3 4 4 4 4 7 8 9 10 12 15 21 19 18 18 25 34 36 37 31 42 52 43 74 46 64 59 55 59 58 84 92 86 74 51 19 14 20 32 33 62 99 95 92
4 4 3 3 3 3 3 3 3 4 4 4 4 4 6 10 9 10 10 10 18 30 29 25 42 30 53 46 43 72 54 61 54 71 94 85 95 47 23 15 17 52 95 57 85 97 90
4 3 3 3 3 3 2 2 2 2 2 2 3 3 3 4 4 3 4 7 8 10 20 26 23 21 42 39 53 63 69 64 64 78 94 88 85 44 27 17 16 27 65 57 76 46 68
2 2 2 2 2 2 2 2 2 2 2 2 2 2 2 2 2 2 2 3 4 7 14 16 19 20 25 36 50 57 63 56 70 78 88 93 82 58 32 18 15 19 52 38 22 28 49
2 2 2 2 2 2 2 2 2 2 2 2 2 2 1 2 2 2 2 2 11 4 9 13 15 16 23 29 42 53 47 51 51 61 66 86 87 94 30 18 16 20 38 42 56 80 49
2 2 2 4 5 7 10 10 12 10 14 14 13 10 5 3 2 3 2 3 7 4 3 6 8 11 14 25 40 52 45 45 49 70 95 88 91 84 32 21 19 23 34 44 68 95 96
13 18 31 42 44 48 48 49 44 37 32 34 35 30 25 22 16 7 4 3 2 2 2 4 6 7 7 15 31 56 51 43 51 75 89 93 93 82 53 26 21 48 58 53 90 84 95
86 75 64 71 80 82 76 69 65 62 55 57 60 59 50 59 44 30 13 4 2 2 2 16 21 19 12 18 37 48 49 48 54 78 100 94 98 91 95 50 22 20 71 100 69 77 91
100 96 86 77 76 82 82 76 67 52 49 40 35 32 39 71 79 74 36 15 7 2 2 16 13 22 36 90 72 60 52 54 62 87 98 98 100 100 100 67 34 22 20 44 85 84 76
99 84 75 73 74 77 71 67 65 70 68 63 48 42 34 54 78 63 34 19 21 11 3 14 47 24 29 84 100 86 67 63 80 96 88 99 97 92 96 76 54 32 43 30 40 66 76
75 64 62 61 55 54 53 51 52 61 75 73 53 53 64 56 45 24 24 24 27 14 6 4 27 18 47 100 100 99 99 88 100 100 93 100 90 100 98 90 62 32 75 96 77 58 85
60 57 63 58 54 56 51 54 63 68 87 99 96 73 64 56 42 35 22 19 24 33 10 6 11 16 36 74 100 98 99 100 92 96 100 100 94 81 80 98 81 65 54 82 95 99 57
70 59 61 65 61 57 63 64 69 59 67 100 100 70 42 44 35 30 34 25 22 29 25 8 15 25 43 73 92 75 98 100 89 92 99 94 82 92 88 86 97 80 70 37 82 99 85
62 66 66 65 62 59 61 69 78 82 79 100 100 82 52 51 54 60 60 40 28 24 47 14 5 7 10 88 100 99 99 100 100 90 89 100 95 94 84 87 77 98 100 100 86 84 90
50 50 49 45 42 49 57 74 85 76 67 96 100 93 95 69 66 78 56 42 33 31 38 51 10 8 18 16 82 98 84 90 88 100 100 98 99 99 79 89 90 88 100 97 100 100 98
55 47 60 97 96 87 83 47 40 33 37 80 100 90 100 97 100 74 70 57 47 44 35 63 16 8 10 95 99 100 99 96 100 91 99 96 100 98 100 98 83 63 68 73 85 93 94
51 77 86 84 83 90 86 88 94 100 98 100 100 100 99 99 90 87 95 77 56 51 50 78 32 5 12 40 54 63 100 100 100 100 100 98 98 89 86 93 80 74 87 81 70 42 66
96 55 38 50 56 51 47 48 67 100 100 100 85 100 100 100 100 95 100 88 75 76 72 59 41 18 85 93 100 99 100 98 100 100 98 100 100 92 100 85 82 81 81 69 60 37 35
75 83 88 84 75 59 56 57 85 69 100 100 99 100 100 96 99 100 99 100 100 97 78 87 51 89 86 65 33 32 79 100 99 100 93 99 100 95 89 97 79 80 100 79 62 42 61
99 100 95 80 82 89 91 78 90 100 100 100 92 100 100 89 99 99 100 100 100 93 80 71 75 100 100 100 71 24 47 87 96 99 94 99 100 100 97 87 83 100 99 93 62 67 96
100 100 89 78 91 83 99 86 100 100 100 100 97 98 99 100 100 100 99 100 92 93 88 90 54 50 33 100 89 43 33 31 56 96 100 95 95 100 100 82 99 100 97 97 96 99 98

GFSGBSN_500_rhum_066.txt.gz
RH
92 94 96 95 96 98 97 95 94 83 76 63 58 41 56 40 51 49 51 60 61 61 57 59 47 45 46 36 62 32 54 53 62 67 66 66 59 56 51 45 47 24 9 6 21 44 82
92 94 95 94 97 97 96 97 95 94 98 89 75 74 92 90 79 86 64 48 51 51 49 43 47 42 45 47 46 43 41 58 59 73 63 58 52 52 47 46 49 26 10 12 26 56 71
94 97 98 94 95 97 96 96 99 94 96 99 95 91 92 95 94 93 90 80 78 71 71 59 38 40 45 64 51 50 48 57 47 68 73 60 49 45 44 44 48 27 12 30 53 70 59
97 95 95 98 96 95 96 97 98 98 97 97 97 96 92 95 96 96 97 97 88 73 70 56 51 37 43 52 49 51 48 51 52 60 74 62 58 54 52 54 63 33 17 26 49 60 71
95 90 93 94 98 100 96 97 98 97 98 96 97 98 96 96 96 100 99 100 92 78 74 57 53 44 48 50 50 48 48 56 59 54 71 51 68 67 68 65 72 49 20 13 26 56 66
47 90 82 73 84 96 98 96 97 96 97 97 97 96 97 96 97 98 98 97 90 90 80 67 56 53 55 54 51 54 52 54 58 54 53 47 62 50 86 81 76 54 40 13 11 26 78
7 9 28 21 36 68 75 89 80 96 94 85 91 96 97 96 96 98 98 97 88 80 80 89 62 55 61 61 55 59 55 53 56 52 52 59 52 56 96 91 79 63 44 13 8 19 60
9 8 7 6 15 9 26 28 50 38 63 50 81 53 79 88 91 96 96 96 82 66 61 74 88 68 64 59 49 58 57 61 54 59 63 48 43 83 79 71 81 74 32 20 10 10 41
8 8 7 6 6 6 5 4 7 11 30 24 20 11 28 22 51 24 40 71 76 62 58 70 76 77 66 56 49 56 52 63 62 62 61 54 62 57 56 67 78 76 44 16 12 14 24
9 8 7 6 5 4 4 4 3 3 5 5 5 4 6 6 11 5 10 51 38 36 45 42 62 58 61 54 41 62 55 59 57 60 74 54 71 53 59 65 84 80 27 16 13 18 20
11 10 8 7 6 5 4 4 3 3 3 3 3 4 5 4 3 3 4 4 8 12 21 28 31 46 54 49 37 38 49 48 55 66 64 48 75 71 63 80 88 75 27 36 16 28 27
11 11 9 8 6 6 5 4 4 4 3 3 3 2 3 3 3 4 3 3 3 4 19 16 20 25 32 31 32 31 32 34 49 55 44 45 72 60 61 79 83 66 40 32 15 20 22
6 7 8 7 6 6 5 4 4 3 3 3 2 2 2 2 2 2 3 2 2 6 17 14 11 12 15 24 25 23 27 27 29 38 41 48 52 66 67 67 75 69 66 37 19 13 19
3 4 4 5 5 4 4 3 3 2 2 2 2 2 2 2 2 2 2 2 3 8 6 3 5 8 8 10 14 16 19 23 24 27 32 41 42 62 60 60 78 82 82 53 20 14 24
5 4 4 4 3 3 3 2 2 2 2 2 2 2 2 3 2 2 2 2 3 3 4 2 2 2 3 6 9 11 13 18 20 19 21 33 32 66 68 78 91 86 88 51 43 20 16
9 7 5 4 3 2 2 2 2 3 3 4 4 3 3 12 5 6 5 2 2 2 2 2 4 5 3 5 6 7 9 10 12 15 21 28 34 65 76 86 82 94 93 64 56 35 19
10 7 6 4 4 4 5 8 15 29 35 50 50 29 36 37 34 19 3 2 2 2 2 3 5 5 6 25 13 5 4 8 12 18 23 32 43 54 74 59 77 83 86 69 66 43 22
12 8 6 6 5 12 37 61 95 100 100 100 100 81 73 85 72 36 5 6 11 12 16 10 8 10 12 49 40 31 16 20 25 21 10 24 56 44 55 76 88 95 91 76 70 48 32
7 6 6 6 18 59 92 100 100 100 100 100 100 86 91 100 72 33 32 24 29 26 31 27 29 24 9 56 78 73 56 66 40 18 18 65 41 52 62 71 88 91 89 85 86 51 26
6 5 12 36 84 100 100 100 100 100 100 100 100 90 77 67 69 63 56 53 61 62 57 45 48 49 24 10 87 75 81 89 98 76 46 82 47 27 28 60 85 92 81 87 76 59 37
24 44 76 100 100 100 100 100 100 100 100 100 97 66 56 49 52 65 53 37 34 30 37 54 48 51 46 26 14 34 100 96 100 100 100 100 59 41 38 74 100 100 97 88 78 73 64
91 100 100 100 100 100 100 100 100 100 100 100 90 68 60 61 59 68 54 36 39 39 32 27 30 54 53 37 12 18 30 31 61 94 100 99 84 68 47 67 96 96 100 97 88 86 80
100 100 100 100 100 100 100 100 100 100 100 100 87 81 74 68 62 53 30 44 42 47 43 26 28 43 32 41 45 18 48 53 45 89 96 100 99 91 48 84 94 98 64 92 91 100 94
100 100 100 100 100 100 100 100 100 100 100 100 90 89 86 52 48 25 40 47 56 53 36 36 36 39 69 45 42 37 22 16 16 21 53 82 100 86 53 100 100 39 73 85 90 99 90
97 98 100 100 94 85 84 86 91 97 98 98 97 100 85 76 57 57 47 51 57 61 50 51 49 50 71 50 38 31 37 36 38 30 29 76 99 100 86 74 65 56 57 80 95 91 95
100 97 93 95 86 76 76 76 75 78 93 92 93 84 94 95 61 67 70 70 74 68 65 48 88 69 64 58 51 32 23 22 31 31 15 24 53 96 100 100 88 53 67 89 100 83 96
98 98 100 83 60 39 38 42 44 47 63 77 93 99 100 99 63 65 70 73 93 87 79 78 76 88 82 67 55 38 20 26 29 26 14 13 9 79 100 99 88 72 87 96 98 58 100
100 70 50 55 43 31 26 28 41 36 62 82 100 100 100 100 82 79 73 73 83 86 80 82 93 85 82 72 56 40 26 26 29 31 39 74 78 62 99 99 100 100 100 99 91 92 100
43 58 60 48 49 52 68 87 75 53 81 93 87 100 100 100 98 100 95 80 82 77 88 87 87 86 80 77 63 58 42 40 33 27 33 48 60 99 92 98 100 100 99 85 78 84 100

GFSGBSN_500_rhum_069.txt.gz
RH
68 70 75 72 90 96 94 91 96 93 95 95 98 96 78 55 41 45 48 58 56 34 34 42 46 50 48 49 53 48 49 36 40 48 55 61 73 66 60 59 47 47 36 16 12 10 26
77 79 90 98 87 93 94 89 92 95 92 96 97 97 94 78 81 64 64 61 69 34 29 41 48 46 46 52 46 54 47 48 40 45 45 56 74 52 57 58 48 50 45 20 14 17 38
79 77 72 85 94 94 87 88 81 84 93 93 95 97 97 96 98 98 81 65 67 72 48 34 41 38 40 52 45 58 48 57 48 43 53 52 62 54 56 60 57 58 45 19 19 22 42
89 94 88 98 94 99 93 94 95 86 84 96 93 96 96 97 95 96 84 98 97 91 69 59 44 42 42 50 42 53 51 48 49 46 50 46 45 60 56 60 67 69 52 25 28 31 37
90 86 78 80 90 87 90 92 100 95 87 95 91 94 94 94 96 98 99 96 92 87 77 70 58 55 56 56 42 46 53 52 55 52 52 46 42 54 58 70 76 84 62 36 33 30 32
32 34 22 10 17 64 56 78 95 94 98 96 100 100 98 96 97 93 98 95 96 92 80 72 69 67 66 61 49 46 52 55 54 57 52 45 46 48 45 76 88 80 71 59 47 34 26
11 12 18 17 9 8 16 19 27 39 80 94 93 98 96 98 99 97 96 98 97 88 72 71 62 76 82 67 55 46 51 51 49 48 47 50 49 39 75 96 70 72 76 72 40 24 16
12 15 14 12 11 8 7 6 8 25 18 57 84 86 96 99 96 98 97 96 88 82 85 88 78 80 94 90 64 57 48 54 54 52 54 51 42 61 84 60 49 60 72 79 35 25 20
25 23 20 16 14 9 8 6 6 6 40 14 9 61 84 97 48 88 82 94 97 86 73 82 84 83 99 73 73 72 58 62 61 59 59 54 64 63 66 52 46 47 76 86 46 28 18
31 26 22 18 15 13 10 10 6 5 4 5 5 4 26 54 73 73 63 39 42 90 74 72 84 64 74 72 57 86 67 63 57 58 70 54 76 65 60 56 54 50 83 84 61 28 16
18 18 18 18 18 17 15 12 9 7 6 5 9 4 3 4 6 11 35 29 58 48 45 44 51 53 49 51 61 84 94 86 64 69 66 56 78 78 68 74 60 55 81 77 63 44 31
6 6 7 8 9 11 13 13 12 10 7 6 5 4 4 3 3 3 5 5 22 18 40 24 24 27 24 31 48 60 82 72 64 64 58 55 79 77 73 85 63 67 74 78 64 54 40
2 2 2 3 4 5 6 6 7 8 8 7 6 5 4 3 2 3 2 3 4 9 15 15 19 18 15 17 27 35 58 74 52 41 43 45 60 63 65 69 69 58 62 71 63 55 47
2 2 2 2 2 2 2 3 5 5 5 6 5 5 4 3 3 3 2 2 2 4 4 4 6 9 12 12 12 21 29 34 33 39 45 48 57 65 64 60 75 71 76 79 75 70 58
3 3 3 2 2 2 3 3 3 4 4 4 4 4 3 2 2 2 2 3 3 3 3 3 3 3 3 5 8 8 12 21 23 26 31 33 33 54 63 69 78 73 63 81 86 77 68
7 6 6 5 5 6 6 6 5 4 4 3 3 3 2 2 2 2 2 2 2 2 2 2 3 4 4 3 3 4 6 9 15 18 22 29 30 43 65 69 71 79 93 90 78 68 62
11 14 17 18 15 13 12 8 6 4 4 4 4 2 4 4 2 2 2 2 2 3 5 4 8 5 4 5 5 4 4 4 7 11 14 19 22 34 58 57 69 65 69 68 69 70 64
13 14 11 18 20 20 14 9 7 5 5 18 46 10 7 14 10 2 2 2 3 5 6 6 9 12 10 6 5 8 16 15 7 6 11 13 15 20 33 61 71 87 89 95 94 84 75
11 11 11 10 13 15 16 10 8 7 30 94 100 75 46 55 11 4 4 8 11 10 11 10 20 27 15 11 24 11 22 35 31 20 9 12 11 11 16 39 54 58 70 72 86 90 63
11 14 16 14 12 10 10 8 8 29 86 100 100 100 87 64 41 37 36 28 26 38 38 15 23 53 34 13 21 48 65 84 86 47 37 23 14 17 10 32 55 53 65 77 79 65 60
19 22 17 18 22 13 8 7 19 80 100 100 100 87 60 46 48 63 75 60 67 60 60 67 42 54 74 47 17 26 88 100 99 100 91 84 20 30 16 29 67 62 79 94 79 66 70
100 78 67 46 18 10 7 21 93 100 100 100 97 85 52 58 49 74 81 78 93 100 77 76 77 97 93 54 43 20 21 80 99 99 100 100 83 53 34 56 75 91 68 65 85 82 62
100 100 99 57 38 47 72 95 100 100 100 100 94 87 79 69 59 52 66 83 87 96 82 79 68 96 94 82 70 46 27 13 36 94 78 93 100 100 81 74 85 75 38 66 81 87 81
100 100 100 100 100 100 100 100 100 100 100 100 93 94 81 58 51 45 66 82 80 92 97 100 95 88 90 66 51 50 40 24 14 38 94 71 100 98 98 100 100 52 92 79 92 81 83
93 96 97 97 100 100 100 100 100 100 100 100 91 87 76 66 61 62 64 70 89 88 84 92 100 100 80 57 38 40 36 33 28 17 13 42 75 69 74 100 92 76 74 92 99 78 95
98 98 99 100 99 100 100 100 100 100 100 100 100 90 80 77 50 67 73 67 70 86 96 94 100 100 91 64 40 27 30 24 24 29 32 30 23 24 33 84 93 87 100 100 99 61 90
89 100 100 100 100 100 100 100 100 100 100 100 100 97 83 65 71 74 64 68 79 86 90 100 100 89 93 73 52 34 24 24 23 24 26 26 33 29 26 52 62 71 100 100 94 39 100
52 100 100 100 100 100 100 100 100 100 100 98 98 100 90 80 72 72 74 72 71 78 85 100 100 94 84 75 58 48 33 28 24 20 24 31 31 31 31 37 48 52 78 98 95 73 92
94 94 85 100 100 100 100 100 100 100 88 73 79 98 92 92 79 70 72 73 82 98 100 100 100 100 95 89 64 70 59 47 32 23 24 27 29 36 35 34 32 19 54 98 100 94 100

GFSGBSN_500_rhum_072.txt.gz
RH
14 16 27 28 28 32 38 49 51 58 60 64 80 83 84 81 92 95 96 98 63 35 36 38 48 46 30 38 52 38 48 51 51 56 52 56 48 52 64 67 50 49 59 49 43 28 19
14 15 22 25 30 47 69 73 64 66 76 78 79 80 80 86 96 88 100 100 92 61 46 44 50 52 33 51 52 43 47 50 56 54 52 49 44 35 55 67 47 52 59 58 51 44 25
19 22 27 32 46 53 64 66 68 71 72 79 83 80 83 86 83 92 93 94 97 94 68 55 56 56 34 73 62 51 55 50 58 58 56 51 39 30 44 71 47 53 59 63 60 48 35
37 44 47 48 60 66 73 80 81 94 86 76 80 79 81 74 88 80 97 96 97 91 84 64 68 62 44 71 68 60 55 56 55 64 64 53 46 36 34 65 58 51 59 71 54 49 39
52 58 70 74 76 75 80 74 81 95 91 93 95 90 88 74 81 78 92 95 94 95 86 82 62 62 68 76 63 44 46 48 49 67 63 55 52 42 45 47 70 73 68 68 56 56 50
53 48 55 49 43 39 28 10 15 42 44 47 70 92 98 98 93 84 92 93 94 85 84 81 75 80 92 98 88 58 64 58 50 60 56 52 52 46 46 44 66 93 52 53 65 64 57
56 41 19 12 12 11 20 31 18 10 9 10 22 34 62 93 98 96 94 98 88 75 75 84 75 88 99 97 96 87 80 69 54 55 57 51 49 46 52 69 90 63 44 43 74 83 69
57 60 47 18 14 13 19 14 16 9 8 7 6 15 23 66 73 95 99 99 88 74 78 80 78 82 99 97 91 96 84 78 63 56 63 48 39 63 64 69 89 59 56 53 70 79 68
65 58 45 39 33 29 27 22 18 22 18 8 6 5 30 14 58 73 93 93 97 91 79 96 87 72 100 90 88 99 96 82 74 66 59 52 59 70 68 76 80 56 48 71 84 85 66
42 45 42 37 35 34 30 24 20 16 13 12 11 6 5 6 17 24 71 94 74 97 75 100 96 89 96 82 64 99 91 98 78 66 76 59 70 70 64 63 72 60 64 86 92 70 63
12 12 12 11 12 13 15 17 16 17 17 18 20 37 8 5 5 23 7 39 83 88 64 66 98 92 86 100 95 97 96 88 85 94 90 71 80 78 69 83 82 80 80 87 78 60 48
9 8 6 5 5 6 6 6 6 6 8 11 14 16 13 7 5 7 12 3 18 74 48 64 71 90 96 84 73 72 87 85 90 97 90 80 86 84 82 96 89 95 73 64 60 59 37
6 5 4 4 4 4 3 3 2 3 4 5 6 8 12 12 7 5 4 3 3 7 27 20 50 31 25 74 65 37 50 67 79 95 91 81 78 75 85 94 86 87 74 65 57 54 36
4 4 4 4 3 2 2 2 2 2 2 2 2 4 6 6 7 6 5 4 3 3 4 10 12 12 18 17 23 43 87 44 69 83 92 89 94 96 84 90 94 90 81 73 70 71 67
5 5 5 5 4 3 3 2 2 2 2 2 2 2 3 5 5 6 5 4 4 3 3 3 4 4 4 8 15 12 14 35 39 49 81 92 66 52 77 97 96 92 84 90 82 70 53
7 7 8 7 6 5 4 3 3 2 3 4 4 3 3 4 4 4 4 4 4 3 3 2 3 3 4 3 4 7 11 12 22 27 30 42 55 61 86 92 90 82 93 90 76 59 48
11 10 9 8 9 9 9 8 7 6 6 11 10 6 4 4 4 3 4 4 3 3 3 3 3 3 3 5 5 4 6 7 9 11 18 25 34 44 44 56 64 71 74 73 66 56 43
4 5 7 12 16 16 13 13 16 19 17 16 12 8 4 7 5 3 3 3 3 3 3 3 4 4 7 6 6 11 9 5 4 5 10 12 17 22 42 44 49 62 67 82 83 72 58
8 9 9 10 10 12 13 14 12 18 21 16 12 9 8 20 7 3 3 4 4 4 4 4 5 5 10 14 17 14 22 9 11 7 5 5 8 12 15 29 35 32 41 57 61 55 34
9 9 9 10 11 13 14 14 13 14 16 15 24 38 86 36 6 12 9 6 5 9 9 6 8 15 12 13 20 31 65 15 23 14 11 8 7 8 11 20 37 34 34 40 54 39 42
36 28 30 18 8 10 13 18 21 17 16 17 99 96 95 60 19 40 34 23 20 22 37 28 23 25 28 21 20 18 80 93 50 33 34 29 15 8 7 13 23 28 26 38 39 42 51
100 100 100 100 76 42 17 9 11 13 27 20 100 96 96 40 66 73 80 55 60 86 93 84 67 83 74 36 38 29 42 63 90 100 84 66 32 26 12 9 22 26 30 63 60 60 49
100 100 100 100 100 100 81 64 44 47 49 47 98 92 83 67 56 60 56 73 85 100 100 100 100 100 98 83 59 44 29 21 23 65 100 100 85 69 67 92 85 25 43 60 68 66 62
100 100 100 100 100 100 94 90 67 58 25 37 73 95 94 84 80 72 83 94 91 100 100 100 100 100 100 89 74 58 45 32 26 20 19 37 68 100 87 100 90 38 91 58 86 77 67
100 100 100 100 100 100 60 23 15 11 10 48 89 94 100 90 96 100 100 100 100 99 96 100 100 100 92 66 74 78 68 47 43 36 25 16 40 40 65 100 79 85 100 100 92 64 69
34 99 100 100 100 100 100 78 44 40 81 85 93 100 100 100 94 100 100 97 100 100 100 100 100 100 100 73 65 70 71 56 57 40 36 25 17 26 31 48 65 72 98 96 83 38 100
68 52 97 100 100 100 100 100 100 100 97 92 97 100 100 96 100 100 95 99 100 100 100 100 100 97 98 87 64 46 48 39 35 33 31 32 42 36 28 28 18 30 50 85 88 62 84
71 74 56 100 100 100 100 100 100 100 100 100 92 97 98 97 100 100 99 100 100 100 100 100 100 92 84 75 65 61 46 49 38 35 31 33 33 32 32 31 28 33 37 28 51 81 84
89 74 89 67 100 100 100 100 100 100 100 100 92 100 100 100 100 100 100 98 99 100 100 99 100 92 82 81 71 69 64 56 53 39 36 29 37 38 28 20 19 24 30 30 30 27 82

GFSGBSN_500_rhum_075.txt.gz
RH
22 18 16 15 14 13 12 12 13 16 18 19 21 23 30 34 40 46 52 61 76 70 75 81 83 58 34 34 51 41 44 51 51 46 50 49 46 49 51 38 37 44 50 48 54 50 45
21 18 15 14 14 13 13 12 13 14 16 17 20 26 40 52 53 64 70 77 85 82 84 80 76 89 51 38 67 66 54 61 69 55 52 49 50 38 33 41 38 40 42 48 44 52 53
18 16 15 15 14 15 18 19 20 24 25 30 47 56 55 57 60 63 74 86 90 87 91 86 81 77 84 63 83 92 73 66 70 62 54 48 50 38 31 40 34 42 38 43 52 47 48
19 18 20 23 23 26 32 30 32 36 38 49 57 64 71 65 66 66 70 78 83 79 89 91 85 82 70 80 89 98 90 81 73 78 69 56 53 50 35 41 34 41 44 49 56 37 40
29 32 34 39 39 37 42 43 51 50 55 61 66 76 81 80 79 68 71 84 79 79 88 93 83 76 77 95 97 93 98 100 88 84 78 67 61 49 44 45 41 40 63 61 57 40 40
42 44 46 47 50 49 46 49 48 42 34 21 13 25 32 41 59 76 82 84 80 71 84 91 82 95 90 100 97 93 91 93 93 93 75 65 58 51 48 43 45 70 68 43 44 54 39
49 51 55 59 57 53 36 26 18 13 18 31 24 15 10 7 14 55 57 81 83 70 87 99 86 93 100 98 93 90 96 92 80 88 68 74 53 48 64 60 71 73 49 33 43 60 57
59 62 59 57 58 57 59 30 12 12 16 22 17 21 9 7 6 16 32 60 76 73 85 92 100 93 98 97 92 84 96 97 86 71 78 71 48 69 60 60 66 72 53 38 52 65 50
62 56 57 59 58 63 59 53 44 24 22 22 23 26 32 29 6 18 18 25 63 65 67 100 90 93 100 84 90 98 97 95 97 78 89 87 84 76 62 65 67 74 61 49 55 66 51
69 68 69 70 68 65 62 57 52 42 37 33 29 31 20 23 14 11 5 7 33 45 49 90 98 94 88 85 76 100 89 96 96 96 100 89 91 84 64 63 72 63 69 62 63 64 42
40 33 28 25 19 18 19 20 20 14 14 19 22 22 23 22 26 35 31 6 13 36 24 37 97 98 92 95 84 97 95 95 92 100 97 97 100 97 73 71 74 78 78 73 65 58 41
26 20 15 14 12 11 11 10 8 7 7 6 7 7 8 12 15 26 19 18 5 19 11 14 94 83 95 98 93 100 96 95 100 97 96 95 98 93 90 93 93 97 88 75 69 60 37
19 14 13 11 11 11 10 7 5 4 4 4 4 4 4 5 5 10 15 14 7 6 24 8 39 86 43 98 83 79 97 98 98 97 95 99 99 97 98 95 96 94 92 77 68 60 42
17 12 12 10 10 9 8 5 4 4 3 3 3 3 2 2 2 4 6 10 11 8 7 14 3 58 80 32 80 92 29 70 97 96 96 97 98 97 99 96 99 98 97 92 92 75 72
16 13 11 9 8 7 6 5 4 4 4 3 3 2 2 2 2 2 3 5 9 8 5 4 4 3 40 27 67 28 92 78 50 35 57 90 95 97 97 98 97 96 86 99 94 85 74
14 10 8 7 6 6 6 6 5 5 5 5 4 3 2 2 2 2 2 3 5 8 6 4 4 4 4 8 5 16 43 33 65 77 69 67 84 93 97 94 95 94 100 95 87 75 72
9 10 8 7 6 6 7 8 9 8 7 6 4 3 3 3 3 2 2 3 3 4 5 5 6 4 5 5 7 6 7 16 15 29 43 70 82 66 96 94 78 96 93 94 83 71 63
10 9 8 7 9 10 10 7 5 6 10 8 9 6 4 6 5 2 2 2 3 4 4 4 5 8 5 8 8 8 6 6 6 10 18 24 31 35 44 60 92 92 86 87 84 80 74
10 9 9 10 7 4 4 5 8 13 18 19 17 13 11 13 8 5 3 2 4 4 5 5 5 7 14 17 13 8 6 7 5 4 6 13 14 20 34 52 58 60 67 72 66 55 47
11 8 5 5 5 6 7 8 10 12 14 16 16 17 18 22 14 11 7 5 4 9 8 6 7 9 11 16 25 19 10 6 5 5 4 4 6 9 11 18 32 49 59 56 53 48 41
5 6 7 8 8 13 13 10 11 15 22 24 18 15 16 25 18 12 10 12 24 27 26 25 16 14 20 14 20 21 23 11 8 5 4 4 5 5 5 8 10 16 28 37 40 34 32
8 11 50 82 98 100 100 92 30 13 15 25 19 14 16 19 40 22 50 33 72 92 63 62 49 72 42 22 24 18 17 11 9 6 8 5 13 9 9 8 9 12 18 23 30 34 25
95 97 100 100 100 100 100 100 100 53 17 14 19 18 17 19 26 66 58 68 99 100 100 100 100 98 100 98 35 12 7 12 10 16 10 12 15 22 24 54 31 10 20 23 26 30 27
80 96 100 100 100 100 100 100 100 100 70 14 12 15 19 19 22 59 78 96 100 100 100 100 100 100 100 100 72 46 29 15 12 21 25 27 59 59 38 51 46 24 63 60 42 28 48
84 74 57 91 100 100 100 100 100 100 99 71 14 14 17 17 35 62 72 94 100 100 100 100 100 100 100 88 67 49 45 30 26 32 28 26 47 33 36 58 47 22 35 100 99 85 68
82 81 71 59 91 100 100 100 100 100 100 100 58 33 18 29 40 76 100 100 100 100 100 100 100 100 100 80 66 53 53 54 50 43 49 37 36 32 24 21 14 10 52 99 100 77 100
58 68 70 61 51 99 100 100 100 88 49 48 31 24 18 42 68 90 96 100 100 100 100 100 99 100 90 73 62 60 61 74 83 89 74 58 50 41 31 20 13 13 24 31 49 62 69
53 54 63 70 53 73 100 100 99 73 30 12 11 10 26 49 82 97 100 100 100 100 100 100 100 100 87 68 60 64 65 74 76 78 66 60 49 35 34 32 33 33 38 58 68 57 49
32 59 70 86 69 66 100 100 100 87 55 38 24 26 50 92 99 100 100 100 100 100 100 100 100 96 78 67 71 85 89 79 71 59 51 42 43 36 27 28 26 24 25 25 21 23 29